Wind_Speed
14 12 10 12 13 15 14 6 3 5 4 2 2 3 3 6 4 7 3 3 4 3 3 2 2 3 5 4 6 3 2 4 2 7 0 10 5 5 4 4 7 2 4 6
13 12 11 13 15 19 12 6 3 5 4 3 1 2 3 4 3 5 3 3 3 2 3 3 1 3 11 16 3 4 4 1 3 6 5 5 1 3 4 1 1 7 4 6
13 14 13 15 17 16 12 6 2 2 1 2 4 4 2 4 4 4 6 5 6 3 2 2 3 1 1 8 4 3 7 4 7 6 8 3 5 4 5 5 3 7 12 21
14 14 13 15 18 15 11 4 2 3 2 3 2 2 5 4 3 2 5 1 4 6 4 1 3 1 4 6 3 2 5 4 3 6 9 7 11 15 18 7 15 7 23 19
14 13 13 15 17 15 8 5 4 5 2 3 5 1 4 6 4 6 3 3 4 5 5 5 5 3 2 4 3 2 3 2 2 4 7 8 11 16 16 14 10 12 16 9
16 14 14 14 18 17 5 7 7 3 1 3 4 3 4 4 6 2 9 10 4 2 5 3 4 8 9 9 6 4 2 3 2 4 3 9 4 5 5 2 2 2 6 4
16 14 14 15 19 16 9 12 11 4 2 2 3 4 5 2 3 6 5 5 5 5 1 7 9 12 15 17 16 16 5 5 3 4 3 2 6 8 5 4 4 5 7 8
15 15 14 15 18 15 13 14 7 4 1 2 1 3 6 8 6 3 3 2 5 8 2 4 6 4 5 3 8 12 16 4 1 2 2 7 6 2 2 1 8 8 5 6
16 16 15 15 16 15 14 11 9 4 7 4 2 1 1 4 3 2 6 11 8 4 5 4 2 3 3 4 3 15 11 8 4 1 3 5 6 4 13 3 3 13 7 7
16 15 14 15 15 16 13 12 9 6 3 2 3 2 2 2 4 3 5 7 4 4 2 2 3 3 3 3 3 4 4 2 11 8 5 7 8 10 7 1 6 9 4 7
18 16 13 13 14 16 16 11 10 8 3 3 5 4 3 2 3 4 7 4 1 3 2 3 4 3 4 1 3 3 5 4 4 2 1 9 13 1 1 8 12 3 4 8
20 17 15 12 13 16 16 14 10 10 6 3 5 7 10 9 7 4 12 2 6 8 3 1 1 2 2 2 3 3 3 6 3 8 6 6 7 5 11 7 4 7 9 8
22 20 16 13 12 15 14 13 10 7 6 10 12 12 7 14 19 18 8 7 7 6 5 6 3 3 3 2 4 4 3 5 3 3 5 10 16 17 15 18 14 11 8 9
21 21 17 14 12 13 14 12 10 7 1 2 3 2 5 7 9 18 28 18 11 9 9 3 2 2 7 3 5 4 6 6 3 7 19 26 28 16 17 20 21 22 12 12
19 18 14 12 11 13 12 12 11 7 4 2 7 16 14 17 14 14 13 24 22 16 4 6 3 4 4 7 7 13 18 16 8 9 22 17 20 26 23 23 30 21 19 15
17 14 11 11 11 14 12 5 11 10 8 2 3 7 7 6 11 18 15 16 17 19 9 6 7 12 5 4 5 11 17 22 30 29 28 27 30 29 29 26 17 13 12 10
14 13 11 12 13 13 9 3 3 9 9 2 5 6 3 4 8 11 17 17 16 17 15 9 9 8 8 3 16 16 20 20 24 28 32 34 34 27 27 19 18 11 10 12
13 12 12 11 12 14 10 7 8 10 8 3 2 5 5 6 6 6 6 8 10 7 8 4 4 7 7 6 21 29 31 33 36 37 34 32 33 33 23 14 12 15 14 11
15 14 13 11 9 7 7 10 6 5 2 2 4 2 3 4 4 4 4 4 1 4 6 6 9 3 6 12 17 27 28 22 27 27 26 26 24 22 18 19 16 18 15 12
16 16 4 4 6 9 10 7 6 5 5 6 5 5 3 5 6 2 3 4 3 1 5 6 3 7 28 29 36 42 44 34 30 28 29 29 20 11 15 20 16 15 12 10
15 5 4 9 14 7 3 3 3 4 3 6 7 15 8 5 4 4 7 2 3 3 4 5 3 4 9 21 26 30 30 31 32 32 33 30 28 19 21 18 14 11 10 9
9 8 9 14 4 2 2 2 4 4 4 5 4 6 10 6 8 5 7 3 1 5 10 3 3 3 30 29 27 22 7 10 13 15 19 17 12 18 12 11 11 9 7 6
13 4 4 3 3 1 5 4 2 2 4 2 3 2 2 6 8 5 2 2 5 2 2 3 2 17 25 27 16 11 5 3 10 12 13 10 9 7 7 7 6 4 5 9
3 5 1 4 3 3 3 1 1 5 8 13 4 4 4 6 5 5 4 4 0 3 2 1 2 17 27 34 29 16 9 9 8 9 6 6 3 3 3 6 7 9 12 14
3 3 3 4 6 3 4 9 7 7 10 12 8 8 6 4 4 2 2 2 4 3 1 2 6 15 22 26 28 31 28 25 19 13 12 10 9 10 10 11 13 15 17 18
2 2 2 4 1 4 5 10 6 5 12 14 6 3 3 4 3 4 5 3 3 1 2 4 14 17 20 23 22 20 20 20 19 17 17 17 17 18 18 19 19 19 20 21
2 4 6 11 12 8 5 10 13 12 8 2 3 4 7 2 3 3 3 2 1 6 6 9 12 14 18 18 20 20 19 17 17 16 17 20 22 23 26 25 22 21 19 18
Wind_Direction
171 169 170 166 164 159 155 142 95 150 153 79 63 137 164 115 121 81 82 80 85 93 86 83 57 106 147 166 162 123 129 144 314 302 175 149 139 184 178 122 292 240 239 250
172 169 171 168 167 165 157 119 118 153 172 132 246 221 96 87 134 165 142 110 99 94 126 134 234 104 81 61 78 149 174 16 0 348 4 351 16 240 184 118 56 236 229 263
175 172 175 174 171 169 158 147 84 146 175 153 138 139 161 115 76 65 105 119 105 90 172 175 192 24 92 21 47 38 159 160 162 195 216 179 313 260 223 162 213 265 259 278
176 175 180 180 175 173 159 138 170 154 215 260 195 143 160 139 150 124 129 86 179 168 179 158 223 78 355 355 23 74 137 191 165 235 246 242 260 277 290 210 244 218 273 277
185 178 180 183 178 174 161 136 151 159 112 187 153 56 188 165 153 149 200 170 164 136 162 188 199 134 167 214 45 72 25 269 266 278 248 253 277 286 281 275 277 278 269 299
175 173 176 183 176 174 144 150 145 176 122 149 102 211 188 202 135 143 175 172 120 127 151 174 232 240 211 218 180 170 198 159 82 265 315 321 326 240 279 275 339 302 1 303
180 176 178 179 181 187 180 162 159 145 251 124 181 185 185 10 174 141 135 147 133 142 120 304 282 271 257 240 230 207 182 155 140 257 4 12 233 298 255 242 235 273 251 278
185 181 179 181 183 186 179 175 167 151 161 163 245 264 190 132 110 102 147 154 167 157 79 42 358 339 4 273 218 202 198 136 304 149 228 273 284 158 289 309 300 248 251 279
189 183 187 188 188 192 190 184 184 171 135 240 156 172 197 158 148 70 105 118 124 115 88 78 137 257 233 297 277 201 188 191 161 133 186 248 233 261 317 337 263 253 248 279
189 184 187 193 194 191 183 183 194 190 146 139 175 141 168 109 129 123 141 166 127 133 95 110 176 248 236 227 209 193 171 170 206 225 224 262 244 233 299 104 242 326 275 295
192 191 189 193 198 195 194 185 192 190 197 194 208 212 195 159 130 137 153 88 226 65 110 139 231 213 242 291 245 195 185 176 196 127 126 267 228 208 338 269 290 266 230 269
199 194 193 194 200 196 197 199 210 217 225 250 251 250 239 242 241 190 181 200 162 168 93 254 80 302 329 177 256 278 240 192 206 181 213 233 270 299 322 241 225 264 266 250
197 193 192 193 189 195 199 206 209 213 246 280 273 260 254 246 247 232 219 212 190 188 201 171 196 229 139 216 239 242 270 294 235 8 258 248 298 305 299 284 274 305 273 243
175 184 187 189 192 200 206 209 214 204 199 310 291 231 246 223 236 226 226 224 199 207 204 228 185 181 207 232 246 236 221 316 263 272 279 282 273 261 296 306 297 286 257 239
170 178 186 194 201 197 192 202 210 209 217 290 291 289 272 238 236 231 234 230 224 246 232 219 222 222 244 247 267 257 235 250 246 254 263 261 275 288 291 295 307 284 243 242
172 176 186 182 167 180 185 201 227 218 216 299 322 292 271 257 226 232 229 231 232 234 231 227 237 233 204 243 256 244 245 249 256 246 269 274 283 284 285 285 270 248 234 248
169 167 168 168 174 181 177 158 184 191 188 219 302 284 256 312 202 223 224 218 234 237 231 224 228 212 217 231 265 255 268 265 267 269 277 289 279 270 273 278 254 234 216 234
159 158 157 154 173 187 182 107 104 143 167 193 269 276 300 212 176 184 199 205 205 222 226 228 206 249 212 253 254 268 267 264 264 269 276 274 290 281 267 240 211 204 210 232
145 142 141 140 164 172 193 202 219 188 172 245 221 218 255 192 165 155 178 201 179 227 225 220 190 218 226 243 261 270 273 259 265 280 276 281 290 306 247 204 207 214 216 236
141 140 128 127 146 134 137 135 166 212 212 220 246 236 276 206 188 180 182 203 222 214 231 175 196 252 253 261 262 270 278 273 268 269 272 276 281 291 218 212 216 224 235 259
145 136 100 118 135 131 153 126 177 198 249 229 239 227 232 240 161 201 212 210 211 233 232 174 233 265 257 294 285 292 297 296 283 266 261 263 267 277 208 199 204 217 249 261
136 121 114 126 142 129 122 208 172 200 240 215 210 233 206 231 212 187 206 218 258 249 150 195 254 296 343 343 320 305 281 296 287 266 255 255 224 188 181 201 213 231 231 262
131 117 126 128 140 133 173 213 240 227 220 94 2 312 244 199 183 203 141 209 238 278 70 224 57 339 354 355 343 322 321 352 91 112 122 133 143 159 180 190 195 230 269 284
124 154 76 159 207 235 201 188 221 357 356 4 328 231 216 224 194 196 205 227 315 307 258 259 319 9 14 26 26 21 58 107 97 93 130 110 100 64 358 318 301 295 295 296
125 157 196 211 226 230 21 339 351 24 15 357 338 302 225 245 258 208 191 221 242 202 218 239 349 9 5 3 8 11 25 33 35 37 33 14 349 333 324 310 299 298 298 298
162 223 304 295 26 8 6 349 347 343 345 346 273 266 277 258 225 223 197 225 211 189 9 23 1 347 358 350 344 351 352 351 343 359 356 338 329 318 309 304 304 306 300 299
202 239 251 264 288 291 344 328 326 327 321 171 237 250 230 269 242 219 7 41 77 323 343 349 343 337 333 332 325 330 328 325 322 320 307 301 298 301 304 301 304 304 303 298
Height
1520 1522 1525 1528 1531 1534 1538 1539 1543 1544 1546 1548 1550 1556 1547 1549 1551 1552 1555 1558 1559 1563 1565 1567 1567 1568 1567 1569 1571 1576 1577 1593 1591 1580 1576 1574 1575 1581 1581 1606 1606 1593 1580 1558
1519 1521 1525 1526 1530 1532 1536 1538 1542 1543 1544 1556 1554 1547 1547 1547 1550 1552 1555 1557 1560 1562 1565 1570 1568 1567 1569 1569 1570 1573 1576 1593 1614 1588 1583 1577 1584 1581 1582 1588 1586 1579 1596 1556
1517 1520 1523 1526 1529 1532 1535 1538 1543 1543 1544 1545 1544 1547 1547 1549 1550 1552 1553 1557 1558 1563 1565 1565 1568 1569 1568 1569 1570 1569 1571 1583 1592 1603 1594 1590 1594 1586 1583 1584 1585 1572 1557 1542
1516 1519 1522 1525 1528 1531 1534 1536 1538 1540 1549 1545 1544 1546 1547 1547 1552 1552 1553 1556 1557 1559 1566 1567 1566 1567 1568 1567 1568 1569 1571 1587 1586 1584 1576 1574 1572 1568 1560 1576 1562 1570 1536 1537
1516 1519 1522 1524 1527 1531 1533 1535 1537 1538 1540 1542 1543 1544 1547 1546 1548 1551 1555 1557 1556 1558 1564 1564 1571 1568 1569 1569 1568 1569 1571 1582 1572 1575 1565 1566 1564 1557 1552 1547 1544 1539 1535 1533
1514 1518 1520 1525 1527 1530 1531 1534 1536 1538 1539 1541 1544 1545 1544 1544 1543 1548 1549 1553 1557 1559 1562 1563 1563 1563 1564 1565 1567 1569 1572 1578 1582 1583 1564 1562 1574 1552 1541 1539 1539 1542 1537 1534
1513 1517 1520 1522 1526 1529 1530 1533 1536 1537 1544 1540 1543 1542 1543 1544 1544 1548 1550 1552 1554 1559 1560 1561 1560 1558 1557 1557 1559 1561 1567 1573 1582 1586 1566 1598 1544 1538 1536 1538 1538 1536 1533 1529
1513 1516 1519 1523 1525 1529 1530 1533 1535 1536 1542 1540 1540 1541 1542 1544 1546 1548 1549 1551 1553 1555 1559 1564 1570 1565 1558 1553 1551 1554 1557 1567 1586 1589 1577 1552 1538 1533 1536 1536 1533 1529 1526 1524
1511 1515 1519 1522 1524 1529 1531 1533 1534 1536 1537 1541 1539 1540 1540 1543 1545 1548 1551 1553 1554 1556 1559 1572 1587 1578 1561 1558 1547 1544 1552 1556 1568 1581 1576 1580 1542 1531 1529 1528 1536 1523 1523 1521
1510 1513 1518 1521 1524 1528 1530 1531 1533 1536 1537 1539 1540 1540 1541 1541 1542 1547 1549 1552 1553 1555 1565 1579 1577 1565 1548 1552 1553 1551 1552 1562 1562 1562 1567 1543 1527 1526 1524 1532 1541 1520 1520 1519
1508 1513 1516 1520 1524 1527 1530 1532 1533 1534 1536 1537 1538 1539 1540 1541 1542 1546 1548 1553 1552 1555 1565 1569 1568 1562 1550 1547 1540 1539 1542 1556 1568 1564 1575 1547 1519 1522 1526 1523 1517 1517 1515 1515
1507 1512 1516 1520 1523 1526 1529 1532 1533 1534 1536 1537 1536 1536 1538 1540 1542 1544 1544 1546 1546 1548 1558 1561 1557 1558 1553 1546 1550 1535 1543 1537 1541 1538 1532 1518 1518 1518 1517 1515 1513 1512 1510 1509
1504 1510 1515 1520 1522 1525 1528 1530 1533 1534 1536 1536 1533 1533 1535 1535 1537 1541 1543 1542 1543 1545 1547 1548 1551 1555 1550 1555 1544 1536 1531 1529 1534 1528 1517 1514 1513 1513 1512 1511 1509 1506 1506 1505
1503 1509 1514 1518 1521 1525 1527 1528 1533 1535 1537 1535 1532 1530 1531 1531 1532 1532 1534 1538 1540 1543 1545 1546 1548 1550 1543 1543 1536 1533 1531 1528 1524 1522 1513 1511 1507 1508 1507 1507 1506 1504 1501 1500
1504 1509 1513 1516 1521 1523 1525 1529 1532 1533 1538 1536 1531 1529 1528 1527 1528 1530 1531 1534 1538 1541 1544 1544 1543 1540 1541 1537 1532 1521 1522 1517 1522 1513 1506 1507 1503 1502 1501 1500 1498 1496 1495 1496
1504 1508 1511 1517 1518 1521 1526 1530 1531 1532 1533 1537 1534 1527 1523 1523 1524 1528 1530 1533 1535 1537 1539 1538 1536 1535 1537 1534 1522 1507 1508 1508 1506 1502 1501 1500 1497 1496 1495 1494 1493 1490 1491 1492
1505 1508 1512 1515 1519 1522 1526 1529 1529 1529 1533 1536 1533 1526 1521 1520 1521 1524 1526 1529 1531 1533 1534 1531 1530 1529 1531 1525 1511 1502 1502 1501 1499 1497 1496 1493 1488 1486 1486 1488 1487 1487 1488 1486
1505 1509 1512 1515 1519 1522 1526 1529 1529 1530 1533 1534 1535 1527 1521 1519 1520 1522 1523 1524 1526 1527 1527 1526 1525 1525 1523 1513 1491 1489 1489 1490 1490 1487 1484 1485 1480 1479 1480 1481 1483 1483 1483 1483
1507 1510 1514 1516 1520 1522 1525 1528 1531 1532 1535 1533 1532 1531 1530 1520 1520 1521 1523 1523 1526 1523 1521 1519 1521 1515 1511 1488 1488 1483 1480 1482 1479 1478 1478 1478 1477 1472 1473 1477 1478 1478 1477 1479
1508 1513 1515 1518 1520 1522 1525 1529 1529 1530 1529 1530 1527 1524 1523 1521 1520 1522 1523 1522 1522 1523 1513 1513 1512 1497 1487 1484 1480 1476 1473 1473 1473 1472 1469 1470 1472 1471 1470 1472 1472 1474 1474 1475
1510 1512 1516 1519 1521 1523 1526 1527 1529 1529 1528 1525 1519 1518 1518 1519 1519 1521 1520 1516 1516 1513 1506 1508 1503 1490 1480 1476 1472 1469 1466 1464 1461 1461 1461 1463 1463 1465 1465 1467 1468 1469 1470 1471
1509 1513 1515 1519 1522 1524 1526 1525 1525 1525 1521 1516 1514 1513 1514 1514 1515 1515 1516 1514 1511 1504 1501 1503 1495 1484 1478 1472 1467 1463 1460 1457 1455 1453 1454 1455 1456 1460 1463 1465 1466 1467 1468 1468
1510 1513 1516 1517 1522 1525 1524 1531 1519 1520 1513 1513 1512 1512 1511 1511 1512 1512 1512 1516 1510 1498 1510 1495 1494 1489 1480 1473 1469 1465 1461 1459 1456 1456 1456 1458 1460 1463 1463 1464 1465 1465 1465 1465
1510 1512 1518 1517 1519 1517 1514 1515 1515 1514 1513 1512 1511 1509 1510 1506 1507 1504 1505 1501 1499 1502 1505 1489 1490 1488 1484 1477 1472 1468 1464 1462 1462 1460 1463 1463 1466 1465 1465 1464 1464 1463 1463 1462
1509 1511 1516 1512 1510 1511 1513 1514 1514 1514 1513 1511 1509 1508 1507 1503 1499 1495 1494 1495 1494 1489 1493 1492 1490 1489 1484 1480 1477 1475 1470 1467 1466 1465 1465 1464 1465 1464 1464 1462 1461 1460 1459 1458
1510 1511 1510 1509 1509 1510 1512 1512 1513 1513 1512 1511 1509 1507 1504 1498 1494 1490 1490 1488 1490 1490 1488 1488 1489 1486 1483 1481 1477 1476 1474 1472 1471 1467 1464 1464 1463 1462 1461 1459 1458 1456 1454 1452
1509 1508 1508 1509 1509 1509 1510 1511 1511 1511 1511 1509 1509 1504 1497 1492 1490 1483 1485 1487 1491 1491 1488 1486 1485 1483 1481 1478 1476 1472 1469 1467 1466 1462 1461 1460 1458 1456 1454 1452 1452 1450 1448 1447